Wetterdaten: aktuell Mittwoch, 24.07.2019 07:08
Datum Zeit Temp. I. Temp. 2m Temp. 5cm Temp. Lager Temp. Wr Temp. Cafe Feuchte I. Feuchte 2m LF Lager Feuchte Wr Feuchte Cafe Luftdruck Regen Wind Richtung Richtung Taupunkt Windchill Windben
24.07.2019 07:08 23,8 C 20,2 C 17,6 C 20,7 C 22,3 C 25,3 C 55 % 67 % 77 % 82 % 71 % 1029,5 hPa 0,0 l/m 3,4 km/h (1 Bft) O-SO 112 13,9 C 20,2 C 5,1 km/h (1 Bft)
24.07.2019 07:06 23,8 C 20,2 C 17,8 C 20,7 C 22,3 C 25,3 C 54 % 67 % 77 % 82 % 71 % 1029,5 hPa 0,0 l/m 3,7 km/h (1 Bft) O-NO 67 13,9 C 20,2 C 4,6 km/h (1 Bft)
24.07.2019 07:04 23,8 C 20,0 C 17,9 C 20,7 C 22,3 C 25,3 C 55 % 67 % 77 % 81 % 71 % 1029,5 hPa 0,0 l/m 3,7 km/h (1 Bft) O 90 13,7 C 20,0 C 5,3 km/h (1 Bft)
24.07.2019 07:02 23,8 C 20,0 C 17,8 C 20,7 C 22,2 C 25,2 C 54 % 67 % 77 % 82 % 71 % 1029,5 hPa 0,0 l/m 3,7 km/h (1 Bft) O-NO 67 13,7 C 20,0 C 7,7 km/h (2 Bft)
24.07.2019 07:00 23,7 C 19,8 C 17,6 C 20,7 C 22,2 C 25,2 C 55 % 68 % 77 % 82 % 71 % 1029,5 hPa 0,0 l/m 3,7 km/h (1 Bft) O-SO 112 13,7 C 19,8 C 7,5 km/h (2 Bft)
24.07.2019 06:58 23,7 C 19,8 C 17,3 C 20,7 C 22,2 C 25,3 C 55 % 68 % 77 % 82 % 71 % 1029,5 hPa 0,0 l/m 3,5 km/h (1 Bft) N-NO 22 13,7 C 19,8 C 6,8 km/h (2 Bft)
24.07.2019 06:56 23,7 C 19,7 C 17,4 C 20,6 C 22,2 C 25,3 C 55 % 68 % 77 % 82 % 71 % 1029,5 hPa 0,0 l/m 3,1 km/h (1 Bft) O-NO 67 13,6 C 19,7 C 4,6 km/h (1 Bft)
24.07.2019 06:54 23,7 C 19,7 C 17,3 C 20,6 C 22,3 C 25,2 C 55 % 68 % 77 % 82 % 71 % 1029,5 hPa 0,0 l/m 3,2 km/h (1 Bft) O-NO 67 13,6 C 19,7 C 8,4 km/h (2 Bft)
24.07.2019 06:52 23,7 C 19,6 C 17,4 C 20,6 C 22,2 C 25,2 C 55 % 68 % 77 % 82 % 71 % 1029,5 hPa 0,0 l/m 3,9 km/h (1 Bft) O-NO 67 13,5 C 19,6 C 5,1 km/h (1 Bft)
24.07.2019 06:50 23,7 C 19,5 C 17,3 C 20,6 C 22,3 C 25,2 C 55 % 68 % 78 % 82 % 71 % 1029,5 hPa 0,0 l/m 3,7 km/h (1 Bft) O-NO 67 13,4 C 19,5 C 6,3 km/h (2 Bft)
24.07.2019 06:48 23,7 C 19,4 C 17,0 C 20,6 C 22,3 C 25,2 C 55 % 68 % 78 % 82 % 71 % 1029,5 hPa 0,0 l/m 3,4 km/h (1 Bft) O-NO 67 13,3 C 19,4 C 5,3 km/h (1 Bft)
24.07.2019 06:46 23,7 C 19,3 C 17,0 C 20,6 C 22,2 C 25,2 C 55 % 68 % 78 % 82 % 71 % 1029,5 hPa 0,0 l/m 3,5 km/h (1 Bft) O-NO 67 13,2 C 19,3 C 2,9 km/h (1 Bft)
24.07.2019 06:44 23,6 C 19,2 C 16,9 C 20,6 C 22,3 C 25,2 C 55 % 69 % 78 % 82 % 71 % 1029,5 hPa 0,0 l/m 3,2 km/h (1 Bft) O-NO 67 13,4 C 19,2 C 8,2 km/h (2 Bft)
24.07.2019 06:42 23,6 C 19,2 C 16,7 C 20,6 C 22,3 C 25,2 C 55 % 69 % 78 % 82 % 71 % 1029,5 hPa 0,0 l/m 2,9 km/h (1 Bft) NO 45 13,4 C 19,2 C 8,7 km/h (2 Bft)
24.07.2019 06:40 23,7 C 19,1 C 16,6 C 20,6 C 22,3 C 25,2 C 55 % 69 % 78 % 82 % 71 % 1029,4 hPa 0,0 l/m 2,4 km/h (1 Bft) NO 45 13,3 C 19,1 C 6,3 km/h (2 Bft)
24.07.2019 06:38 23,6 C 19,0 C 16,5 C 20,6 C 22,2 C 25,2 C 55 % 69 % 78 % 82 % 71 % 1029,4 hPa 0,0 l/m 2,4 km/h (1 Bft) NO 45 13,2 C 19,0 C 6,8 km/h (2 Bft)
24.07.2019 06:36 23,7 C 18,9 C 16,4 C 20,5 C 22,3 C 25,2 C 55 % 69 % 78 % 82 % 71 % 1029,4 hPa 0,0 l/m 2,6 km/h (1 Bft) NO 45 13,1 C 18,9 C 5,1 km/h (1 Bft)
24.07.2019 06:34 23,7 C 18,9 C 16,4 C 20,6 C 22,3 C 25,2 C 55 % 69 % 78 % 82 % 71 % 1029,4 hPa 0,0 l/m 2,9 km/h (1 Bft) O-NO 67 13,1 C 18,9 C 4,6 km/h (1 Bft)
24.07.2019 06:32 23,7 C 18,8 C 16,3 C 20,5 C 22,3 C 25,3 C 55 % 70 % 78 % 82 % 71 % 1029,4 hPa 0,0 l/m 3,4 km/h (1 Bft) O-NO 67 13,2 C 18,8 C 3,9 km/h (1 Bft)
24.07.2019 06:30 23,7 C 18,8 C 16,4 C 20,5 C 22,3 C 25,2 C 55 % 70 % 78 % 82 % 71 % 1029,4 hPa 0,0 l/m 3,5 km/h (1 Bft) NO 45 13,2 C 18,8 C 3,9 km/h (1 Bft)
24.07.2019 06:28 23,7 C 18,8 C 16,3 C 20,5 C 22,3 C 25,3 C 55 % 70 % 78 % 82 % 71 % 1029,4 hPa 0,0 l/m 3,7 km/h (1 Bft) NW 315 13,2 C 18,8 C 5,3 km/h (1 Bft)
24.07.2019 06:26 23,7 C 18,8 C 16,3 C 20,5 C 22,3 C 25,3 C 54 % 70 % 78 % 82 % 71 % 1029,4 hPa 0,0 l/m 3,5 km/h (1 Bft) NO 45 13,2 C 18,8 C 5,3 km/h (1 Bft)
24.07.2019 06:24 23,7 C 18,8 C 16,3 C 20,5 C 22,3 C 25,3 C 54 % 70 % 78 % 82 % 71 % 1029,4 hPa 0,0 l/m 3,7 km/h (1 Bft) NO 45 13,2 C 18,8 C 5,3 km/h (1 Bft)
24.07.2019 06:22 23,7 C 18,8 C 16,2 C 20,5 C 22,3 C 25,3 C 54 % 70 % 78 % 82 % 71 % 1029,4 hPa 0,0 l/m 3,7 km/h (1 Bft) N-NO 22 13,2 C 18,8 C 9,9 km/h (2 Bft)
24.07.2019 06:20 23,7 C 18,8 C 16,2 C 20,5 C 22,3 C 25,2 C 54 % 70 % 78 % 82 % 71 % 1029,5 hPa 0,0 l/m 3,9 km/h (1 Bft) N 360 13,2 C 18,8 C 6,8 km/h (2 Bft)
24.07.2019 06:18 23,7 C 18,8 C 16,1 C 20,6 C 22,3 C 25,3 C 54 % 70 % 78 % 82 % 71 % 1029,5 hPa 0,0 l/m 4,2 km/h (1 Bft) NO 45 13,2 C 18,8 C 7,2 km/h (2 Bft)
24.07.2019 06:16 23,7 C 18,9 C 16,1 C 20,5 C 22,3 C 25,3 C 54 % 70 % 78 % 82 % 71 % 1029,5 hPa 0,0 l/m 4,2 km/h (1 Bft) N-NW 337 13,3 C 18,9 C 6,3 km/h (2 Bft)
24.07.2019 06:14 23,7 C 18,9 C 16,2 C 20,5 C 22,3 C 25,3 C 54 % 70 % 78 % 82 % 71 % 1029,5 hPa 0,0 l/m 4,3 km/h (1 Bft) N-NW 337 13,3 C 18,9 C 9,2 km/h (2 Bft)
24.07.2019 06:12 23,8 C 19,1 C 16,1 C 20,5 C 22,2 C 25,3 C 54 % 69 % 78 % 82 % 71 % 1029,5 hPa 0,0 l/m 4,0 km/h (1 Bft) N 360 13,3 C 19,1 C 6,8 km/h (2 Bft)
24.07.2019 06:10 23,8 C 19,1 C 16,1 C 20,5 C 22,2 C 25,3 C 54 % 69 % 78 % 82 % 71 % 1029,5 hPa 0,0 l/m 4,0 km/h (1 Bft) N 360 13,3 C 19,1 C 6,8 km/h (2 Bft)
24.07.2019 06:08 23,8 C 19,1 C 16,1 C 20,5 C 22,2 C 25,3 C 54 % 69 % 78 % 82 % 71 % 1029,5 hPa 0,0 l/m 4,0 km/h (1 Bft) N 360 13,3 C 19,1 C 6,8 km/h (2 Bft)
24.07.2019 06:06 23,8 C 19,1 C 16,1 C 20,5 C 22,2 C 25,3 C 54 % 69 % 78 % 82 % 71 % 1029,5 hPa 0,0 l/m 4,0 km/h (1 Bft) N 360 13,3 C 19,1 C 6,8 km/h (2 Bft)
24.07.2019 06:04 23,8 C 19,1 C 16,1 C 20,5 C 22,2 C 25,3 C 54 % 69 % 78 % 82 % 71 % 1029,5 hPa 0,0 l/m 4,0 km/h (1 Bft) N 360 13,3 C 19,1 C 6,8 km/h (2 Bft)
24.07.2019 06:02 23,8 C 19,1 C 16,1 C 20,5 C 22,3 C 25,3 C 54 % 69 % 78 % 82 % 71 % 1029,5 hPa 0,0 l/m 4,2 km/h (1 Bft) NO 45 13,3 C 19,1 C 8,4 km/h (2 Bft)
24.07.2019 06:00 23,8 C 19,1 C 16,1 C 20,5 C 22,3 C 25,3 C 54 % 69 % 78 % 82 % 71 % 1029,4 hPa 0,0 l/m 4,0 km/h (1 Bft) N-NO 22 13,3 C 19,1 C 6,0 km/h (2 Bft)
24.07.2019 05:58 23,8 C 19,1 C 16,0 C 20,5 C 22,3 C 25,3 C 54 % 69 % 78 % 82 % 71 % 1029,4 hPa 0,0 l/m 4,0 km/h (1 Bft) N-NO 22 13,3 C 19,1 C 6,5 km/h (2 Bft)
24.07.2019 05:56 23,9 C 19,0 C 16,1 C 20,5 C 22,3 C 25,3 C 54 % 69 % 78 % 82 % 71 % 1029,4 hPa 0,0 l/m 4,0 km/h (1 Bft) N-NO 22 13,2 C 19,0 C 6,0 km/h (2 Bft)
24.07.2019 05:54 23,9 C 19,0 C 16,1 C 20,5 C 22,2 C 25,3 C 54 % 69 % 78 % 82 % 71 % 1029,4 hPa 0,0 l/m 4,2 km/h (1 Bft) N 360 13,2 C 19,0 C 5,8 km/h (2 Bft)
24.07.2019 05:52 23,9 C 19,0 C 16,0 C 20,5 C 22,2 C 25,3 C 54 % 69 % 78 % 82 % 71 % 1029,4 hPa 0,0 l/m 4,0 km/h (1 Bft) N-NO 22 13,2 C 19,0 C 7,7 km/h (2 Bft)
24.07.2019 05:50 23,9 C 19,0 C 16,0 C 20,5 C 22,2 C 25,3 C 54 % 69 % 78 % 82 % 71 % 1029,4 hPa 0,0 l/m 4,0 km/h (1 Bft) N-NO 22 13,2 C 19,0 C 5,8 km/h (2 Bft)
24.07.2019 05:48 23,9 C 19,0 C 16,0 C 20,5 C 22,3 C 25,3 C 54 % 69 % 78 % 82 % 71 % 1029,4 hPa 0,0 l/m 4,2 km/h (1 Bft) N-NO 22 13,2 C 19,0 C 5,6 km/h (1 Bft)
24.07.2019 05:46 23,9 C 19,1 C 16,0 C 20,5 C 22,2 C 25,3 C 54 % 69 % 78 % 82 % 71 % 1029,4 hPa 0,0 l/m 4,3 km/h (1 Bft) N 360 13,3 C 19,1 C 8,4 km/h (2 Bft)
24.07.2019 05:44 24,0 C 19,1 C 16,0 C 20,5 C 22,3 C 25,3 C 54 % 69 % 78 % 82 % 71 % 1029,4 hPa 0,0 l/m 4,3 km/h (1 Bft) N-NO 22 13,3 C 19,1 C 7,2 km/h (2 Bft)
24.07.2019 05:42 24,0 C 19,1 C 16,0 C 20,5 C 22,3 C 25,3 C 54 % 69 % 78 % 82 % 71 % 1029,4 hPa 0,0 l/m 4,3 km/h (1 Bft) N-NO 22 13,3 C 19,1 C 6,3 km/h (2 Bft)
24.07.2019 05:40 24,0 C 19,1 C 16,0 C 20,5 C 22,2 C 25,3 C 54 % 69 % 78 % 82 % 71 % 1029,4 hPa 0,0 l/m 4,5 km/h (1 Bft) N-NO 22 13,3 C 19,1 C 8,0 km/h (2 Bft)
24.07.2019 05:38 24,0 C 19,1 C 16,0 C 20,5 C 22,2 C 25,3 C 54 % 69 % 78 % 82 % 71 % 1029,4 hPa 0,0 l/m 4,5 km/h (1 Bft) N-NO 22 13,3 C 19,1 C 6,5 km/h (2 Bft)
24.07.2019 05:36 24,0 C 19,0 C 15,9 C 20,5 C 22,2 C 25,3 C 54 % 69 % 78 % 82 % 71 % 1029,4 hPa 0,0 l/m 4,3 km/h (1 Bft) N-NO 22 13,2 C 19,0 C 9,7 km/h (2 Bft)
24.07.2019 05:34 24,0 C 19,0 C 15,8 C 20,5 C 22,2 C 25,3 C 54 % 69 % 78 % 82 % 71 % 1029,4 hPa 0,0 l/m 4,3 km/h (1 Bft) N-NO 22 13,2 C 19,0 C 6,8 km/h (2 Bft)
24.07.2019 05:32 24,0 C 19,0 C 15,8 C 20,5 C 22,2 C 25,3 C 54 % 70 % 78 % 82 % 71 % 1029,4 hPa 0,0 l/m 4,5 km/h (1 Bft) N-NO 22 13,4 C 19,0 C 6,0 km/h (2 Bft)
24.07.2019 05:30 24,0 C 19,0 C 15,9 C 20,5 C 22,2 C 25,3 C 54 % 70 % 78 % 82 % 71 % 1029,4 hPa 0,0 l/m 4,5 km/h (1 Bft) N-NO 22 13,4 C 19,0 C 8,0 km/h (2 Bft)
24.07.2019 05:28 24,0 C 19,0 C 15,8 C 20,5 C 22,2 C 25,3 C 54 % 70 % 78 % 82 % 71 % 1029,4 hPa 0,0 l/m 4,3 km/h (1 Bft) NO 45 13,4 C 19,0 C 6,8 km/h (2 Bft)
24.07.2019 05:26 24,0 C 18,9 C 15,8 C 20,5 C 22,2 C 25,3 C 54 % 70 % 78 % 82 % 71 % 1029,4 hPa 0,0 l/m 4,2 km/h (1 Bft) N-NO 22 13,3 C 18,9 C 7,0 km/h (2 Bft)
24.07.2019 05:24 24,1 C 18,9 C 15,7 C 20,5 C 22,2 C 25,3 C 54 % 70 % 78 % 82 % 71 % 1029,4 hPa 0,0 l/m 4,3 km/h (1 Bft) NO 45 13,3 C 18,9 C 10,4 km/h (2 Bft)
24.07.2019 05:22 24,1 C 19,0 C 15,7 C 20,5 C 22,2 C 25,3 C 54 % 70 % 78 % 82 % 71 % 1029,4 hPa 0,0 l/m 4,3 km/h (1 Bft) NW 315 13,4 C 19,0 C 9,2 km/h (2 Bft)
24.07.2019 05:20 24,1 C 19,0 C 15,7 C 20,5 C 22,2 C 25,3 C 54 % 70 % 78 % 82 % 71 % 1029,4 hPa 0,0 l/m 4,2 km/h (1 Bft) N-NW 337 13,4 C 19,0 C 7,0 km/h (2 Bft)
24.07.2019 05:18 24,1 C 19,0 C 15,7 C 20,5 C 22,2 C 25,4 C 54 % 70 % 78 % 82 % 71 % 1029,4 hPa 0,0 l/m 4,3 km/h (1 Bft) N-NO 22 13,4 C 19,0 C 8,2 km/h (2 Bft)
24.07.2019 05:16 24,1 C 19,0 C 15,8 C 20,5 C 22,2 C 25,4 C 54 % 70 % 78 % 82 % 71 % 1029,4 hPa 0,0 l/m 4,3 km/h (1 Bft) N-NW 337 13,4 C 19,0 C 5,8 km/h (2 Bft)
24.07.2019 05:14 24,1 C 19,0 C 15,9 C 20,5 C 22,2 C 25,4 C 54 % 70 % 78 % 82 % 71 % 1029,4 hPa 0,0 l/m 4,3 km/h (1 Bft) W-NW 292 13,4 C 19,0 C 8,2 km/h (2 Bft)
24.07.2019 05:12 24,1 C 19,0 C 15,8 C 20,5 C 22,2 C 25,4 C 54 % 70 % 78 % 82 % 71 % 1029,4 hPa 0,0 l/m 4,3 km/h (1 Bft) NO 45 13,4 C 19,0 C 7,7 km/h (2 Bft)
24.07.2019 05:10 24,2 C 19,0 C 15,9 C 20,5 C 22,2 C 25,4 C 54 % 70 % 78 % 82 % 71 % 1029,4 hPa 0,0 l/m 4,3 km/h (1 Bft) N 360 13,4 C 19,0 C 7,5 km/h (2 Bft)
24.07.2019 05:08 24,2 C 19,0 C 16,0 C 20,5 C 22,2 C 25,4 C 54 % 70 % 78 % 82 % 71 % 1029,4 hPa 0,0 l/m 4,5 km/h (1 Bft) N-NW 337 13,4 C 19,0 C 8,7 km/h (2 Bft)
24.07.2019 05:06 24,2 C 19,0 C 15,8 C 20,5 C 22,2 C 25,4 C 54 % 70 % 78 % 82 % 71 % 1029,4 hPa 0,0 l/m 4,7 km/h (1 Bft) NO 45 13,4 C 19,0 C 5,3 km/h (1 Bft)
24.07.2019 05:04 24,2 C 19,0 C 15,9 C 20,5 C 22,2 C 25,4 C 54 % 70 % 78 % 82 % 71 % 1029,4 hPa 0,0 l/m 4,8 km/h (1 Bft) N-NO 22 13,4 C 19,0 C 8,4 km/h (2 Bft)
24.07.2019 05:02 24,2 C 19,0 C 15,9 C 20,5 C 22,2 C 25,4 C 54 % 70 % 78 % 82 % 71 % 1029,4 hPa 0,0 l/m 5,0 km/h (1 Bft) N-NW 337 13,4 C 19,0 C 6,8 km/h (2 Bft)
24.07.2019 05:00 24,2 C 18,9 C 15,9 C 20,5 C 22,2 C 25,4 C 54 % 71 % 78 % 82 % 71 % 1029,4 hPa 0,0 l/m 5,0 km/h (1 Bft) N 360 13,5 C 18,9 C 9,9 km/h (2 Bft)
24.07.2019 04:58 24,3 C 18,9 C 15,9 C 20,5 C 22,2 C 25,5 C 54 % 71 % 78 % 82 % 71 % 1029,4 hPa 0,0 l/m 5,0 km/h (1 Bft) N-NO 22 13,5 C 18,9 C 7,7 km/h (2 Bft)
24.07.2019 04:56 24,3 C 18,9 C 15,9 C 20,5 C 22,2 C 25,5 C 54 % 70 % 78 % 82 % 71 % 1029,4 hPa 0,0 l/m 5,0 km/h (1 Bft) N-NO 22 13,3 C 18,9 C 11,3 km/h (2 Bft)
24.07.2019 04:54 24,3 C 18,9 C 15,8 C 20,5 C 22,2 C 25,4 C 54 % 70 % 78 % 82 % 71 % 1029,4 hPa 0,0 l/m 4,7 km/h (1 Bft) NO 45 13,3 C 18,9 C 8,9 km/h (2 Bft)
24.07.2019 04:52 24,2 C 18,9 C 15,8 C 20,5 C 22,2 C 25,5 C 54 % 70 % 78 % 82 % 71 % 1029,4 hPa 0,0 l/m 4,7 km/h (1 Bft) NO 45 13,3 C 18,9 C 7,5 km/h (2 Bft)
24.07.2019 04:50 24,4 C 18,9 C 15,9 C 20,5 C 22,2 C 25,5 C 54 % 70 % 78 % 82 % 71 % 1029,4 hPa 0,0 l/m 4,7 km/h (1 Bft) N-NO 22 13,3 C 18,9 C 9,9 km/h (2 Bft)
24.07.2019 04:48 24,4 C 18,9 C 15,9 C 20,5 C 22,2 C 25,5 C 54 % 70 % 78 % 82 % 71 % 1029,4 hPa 0,0 l/m 4,7 km/h (1 Bft) N-NO 22 13,3 C 18,9 C 7,0 km/h (2 Bft)
24.07.2019 04:46 24,4 C 18,9 C 15,9 C 20,5 C 22,2 C 25,5 C 54 % 70 % 78 % 82 % 71 % 1029,4 hPa 0,0 l/m 4,7 km/h (1 Bft) N-NW 337 13,3 C 18,9 C 9,4 km/h (2 Bft)
24.07.2019 04:44 24,4 C 18,8 C 15,8 C 20,5 C 22,2 C 25,5 C 54 % 70 % 78 % 82 % 71 % 1029,4 hPa 0,0 l/m 4,7 km/h (1 Bft) NO 45 13,2 C 18,8 C 7,5 km/h (2 Bft)
24.07.2019 04:42 24,4 C 18,8 C 15,8 C 20,5 C 22,2 C 25,5 C 54 % 70 % 78 % 82 % 71 % 1029,4 hPa 0,0 l/m 4,7 km/h (1 Bft) N 360 13,2 C 18,8 C 8,2 km/h (2 Bft)
24.07.2019 04:40 24,4 C 18,8 C 15,8 C 20,5 C 22,2 C 25,5 C 54 % 70 % 78 % 82 % 71 % 1029,6 hPa 0,0 l/m 4,7 km/h (1 Bft) N-NO 22 13,2 C 18,8 C 7,2 km/h (2 Bft)
24.07.2019 04:38 24,4 C 18,8 C 15,8 C 20,5 C 22,2 C 25,5 C 54 % 70 % 78 % 82 % 71 % 1029,6 hPa 0,0 l/m 4,7 km/h (1 Bft) N-NO 22 13,2 C 18,8 C 9,2 km/h (2 Bft)
24.07.2019 04:36 24,5 C 18,8 C 15,8 C 20,5 C 22,2 C 25,5 C 54 % 70 % 78 % 82 % 71 % 1029,6 hPa 0,0 l/m 4,3 km/h (1 Bft) N-NO 22 13,2 C 18,8 C 8,0 km/h (2 Bft)
24.07.2019 04:34 24,5 C 18,8 C 15,8 C 20,5 C 22,2 C 25,5 C 54 % 70 % 78 % 82 % 71 % 1029,6 hPa 0,0 l/m 4,2 km/h (1 Bft) N-NO 22 13,2 C 18,8 C 6,8 km/h (2 Bft)
24.07.2019 04:32 24,5 C 18,8 C 15,8 C 20,5 C 22,2 C 25,5 C 54 % 70 % 78 % 82 % 71 % 1029,6 hPa 0,0 l/m 4,3 km/h (1 Bft) N 360 13,2 C 18,8 C 7,2 km/h (2 Bft)
24.07.2019 04:30 24,5 C 18,8 C 15,8 C 20,5 C 22,2 C 25,5 C 54 % 70 % 78 % 82 % 71 % 1029,6 hPa 0,0 l/m 4,2 km/h (1 Bft) N-NW 337 13,2 C 18,8 C 6,3 km/h (2 Bft)
24.07.2019 04:28 24,5 C 18,8 C 15,8 C 20,5 C 22,2 C 25,5 C 54 % 70 % 78 % 82 % 71 % 1029,6 hPa 0,0 l/m 4,2 km/h (1 Bft) N-NW 337 13,2 C 18,8 C 6,0 km/h (2 Bft)
24.07.2019 04:26 24,6 C 18,8 C 15,8 C 20,5 C 22,2 C 25,5 C 54 % 70 % 78 % 82 % 71 % 1029,6 hPa 0,0 l/m 4,2 km/h (1 Bft) N-NO 22 13,2 C 18,8 C 6,0 km/h (2 Bft)
24.07.2019 04:24 24,6 C 18,8 C 15,8 C 20,5 C 22,3 C 25,5 C 54 % 70 % 78 % 82 % 70 % 1029,6 hPa 0,0 l/m 4,2 km/h (1 Bft) N-NO 22 13,2 C 18,8 C 6,3 km/h (2 Bft)
24.07.2019 04:22 24,6 C 18,8 C 15,9 C 20,5 C 22,3 C 25,4 C 54 % 70 % 78 % 82 % 71 % 1029,6 hPa 0,0 l/m 4,0 km/h (1 Bft) N-NO 22 13,2 C 18,8 C 9,7 km/h (2 Bft)
24.07.2019 04:20 24,6 C 18,8 C 15,8 C 20,5 C 22,3 C 25,4 C 54 % 70 % 78 % 82 % 71 % 1029,9 hPa 0,0 l/m 3,9 km/h (1 Bft) N-NO 22 13,2 C 18,8 C 7,5 km/h (2 Bft)
24.07.2019 04:18 24,6 C 18,8 C 15,8 C 20,5 C 22,2 C 25,4 C 54 % 70 % 78 % 82 % 70 % 1029,9 hPa 0,0 l/m 3,7 km/h (1 Bft) N 360 13,2 C 18,8 C 6,0 km/h (2 Bft)
24.07.2019 04:16 24,6 C 18,8 C 15,8 C 20,5 C 22,2 C 25,4 C 54 % 70 % 78 % 82 % 71 % 1029,9 hPa 0,0 l/m 3,7 km/h (1 Bft) N-NO 22 13,2 C 18,8 C 7,0 km/h (2 Bft)
24.07.2019 04:14 24,7 C 18,8 C 15,8 C 20,5 C 22,2 C 25,4 C 54 % 70 % 78 % 82 % 71 % 1029,9 hPa 0,0 l/m 3,7 km/h (1 Bft) N-NO 22 13,2 C 18,8 C 6,3 km/h (2 Bft)
24.07.2019 04:12 24,7 C 18,8 C 15,8 C 20,5 C 22,2 C 25,4 C 54 % 70 % 78 % 82 % 70 % 1029,9 hPa 0,0 l/m 3,7 km/h (1 Bft) N-NO 22 13,2 C 18,8 C 5,3 km/h (1 Bft)
24.07.2019 04:10 24,7 C 18,8 C 15,7 C 20,5 C 22,2 C 25,4 C 54 % 69 % 78 % 82 % 71 % 1029,9 hPa 0,0 l/m 3,5 km/h (1 Bft) N-NO 22 13,0 C 18,8 C 6,0 km/h (2 Bft)
24.07.2019 04:08 24,7 C 18,9 C 15,7 C 20,5 C 22,2 C 25,4 C 54 % 69 % 78 % 82 % 71 % 1029,9 hPa 0,0 l/m 3,5 km/h (1 Bft) N-NO 22 13,1 C 18,9 C 5,8 km/h (2 Bft)
24.07.2019 04:06 24,7 C 18,9 C 15,7 C 20,5 C 22,2 C 25,4 C 54 % 69 % 78 % 82 % 71 % 1029,9 hPa 0,0 l/m 3,4 km/h (1 Bft) N-NO 22 13,1 C 18,9 C 7,2 km/h (2 Bft)
24.07.2019 04:04 24,8 C 18,9 C 15,7 C 20,5 C 22,2 C 25,4 C 54 % 69 % 78 % 82 % 70 % 1029,9 hPa 0,0 l/m 3,2 km/h (1 Bft) N 360 13,1 C 18,9 C 6,3 km/h (2 Bft)
24.07.2019 04:02 24,8 C 18,9 C 15,7 C 20,5 C 22,3 C 25,5 C 53 % 68 % 78 % 82 % 71 % 1029,9 hPa 0,0 l/m 3,1 km/h (1 Bft) N-NO 22 12,9 C 18,9 C 6,0 km/h (2 Bft)
24.07.2019 04:00 24,8 C 18,9 C 15,7 C 20,5 C 22,3 C 25,4 C 53 % 68 % 78 % 82 % 71 % 1030,2 hPa 0,0 l/m 2,9 km/h (1 Bft) N-NO 22 12,9 C 18,9 C 6,3 km/h (2 Bft)
24.07.2019 03:58 24,8 C 19,0 C 15,6 C 20,5 C 22,2 C 25,5 C 53 % 68 % 78 % 82 % 71 % 1030,2 hPa 0,0 l/m 3,1 km/h (1 Bft) N-NO 22 13,0 C 19,0 C 5,1 km/h (1 Bft)
24.07.2019 03:56 24,8 C 19,0 C 15,7 C 20,5 C 22,3 C 25,4 C 53 % 68 % 78 % 82 % 70 % 1030,2 hPa 0,0 l/m 3,1 km/h (1 Bft) N-NW 337 13,0 C 19,0 C 4,3 km/h (1 Bft)
24.07.2019 03:54 24,8 C 19,0 C 15,8 C 20,5 C 22,3 C 25,5 C 53 % 68 % 78 % 82 % 71 % 1030,2 hPa 0,0 l/m 3,1 km/h (1 Bft) N-NW 337 13,0 C 19,0 C 4,8 km/h (1 Bft)
24.07.2019 03:52 24,8 C 19,1 C 15,8 C 20,5 C 22,3 C 25,5 C 53 % 68 % 78 % 82 % 70 % 1030,2 hPa 0,0 l/m 3,2 km/h (1 Bft) N-NW 337 13,1 C 19,1 C 4,6 km/h (1 Bft)
24.07.2019 03:50 24,8 C 19,1 C 15,8 C 20,5 C 22,2 C 25,5 C 53 % 68 % 78 % 82 % 71 % 1030,2 hPa 0,0 l/m 3,4 km/h (1 Bft) N-NO 22 13,1 C 19,1 C 4,6 km/h (1 Bft)
24.07.2019 03:48 24,8 C 19,1 C 15,8 C 20,5 C 22,3 C 25,5 C 53 % 67 % 78 % 82 % 71 % 1030,2 hPa 0,0 l/m 3,4 km/h (1 Bft) N-NW 337 12,8 C 19,1 C 6,0 km/h (2 Bft)
24.07.2019 03:46 24,9 C 19,1 C 15,8 C 20,5 C 22,2 C 25,5 C 53 % 67 % 78 % 82 % 70 % 1030,2 hPa 0,0 l/m 3,2 km/h (1 Bft) N-NO 22 12,8 C 19,1 C 5,1 km/h (1 Bft)
24.07.2019 03:44 24,9 C 19,2 C 15,8 C 20,5 C 22,2 C 25,5 C 53 % 67 % 78 % 82 % 70 % 1030,2 hPa 0,0 l/m 3,2 km/h (1 Bft) N-NO 22 12,9 C 19,2 C 5,8 km/h (2 Bft)
24.07.2019 03:42 24,9 C 19,2 C 15,9 C 20,5 C 22,3 C 25,5 C 53 % 67 % 77 % 82 % 70 % 1030,2 hPa 0,0 l/m 3,4 km/h (1 Bft) N-NO 22 12,9 C 19,2 C 5,3 km/h (1 Bft)
24.07.2019 03:40 24,9 C 19,3 C 15,9 C 20,5 C 22,2 C 25,5 C 53 % 67 % 77 % 82 % 70 % 1030,4 hPa 0,0 l/m 3,7 km/h (1 Bft) N-NO 22 13,0 C 19,3 C 5,6 km/h (1 Bft)
24.07.2019 03:38 24,9 C 19,3 C 16,0 C 20,5 C 22,3 C 25,5 C 53 % 67 % 77 % 82 % 70 % 1030,4 hPa 0,0 l/m 3,9 km/h (1 Bft) N 360 13,0 C 19,3 C 5,1 km/h (1 Bft)
24.07.2019 03:36 25,0 C 19,4 C 16,1 C 20,5 C 22,2 C 25,5 C 53 % 67 % 77 % 82 % 70 % 1030,4 hPa 0,0 l/m 3,9 km/h (1 Bft) N-NW 337 13,1 C 19,4 C 5,1 km/h (1 Bft)
24.07.2019 03:34 25,0 C 19,4 C 16,1 C 20,5 C 22,2 C 25,5 C 53 % 67 % 77 % 82 % 71 % 1030,4 hPa 0,0 l/m 4,0 km/h (1 Bft) N-NW 337 13,1 C 19,4 C 6,3 km/h (2 Bft)
24.07.2019 03:32 25,0 C 19,5 C 16,1 C 20,5 C 22,2 C 25,5 C 53 % 67 % 77 % 82 % 70 % 1030,4 hPa 0,0 l/m 4,2 km/h (1 Bft) N-NO 22 13,2 C 19,5 C 6,8 km/h (2 Bft)
24.07.2019 03:30 25,0 C 19,5 C 16,2 C 20,5 C 22,3 C 25,5 C 53 % 67 % 77 % 82 % 70 % 1030,4 hPa 0,0 l/m 4,2 km/h (1 Bft) N-NO 22 13,2 C 19,5 C 7,0 km/h (2 Bft)
24.07.2019 03:28 25,1 C 19,6 C 16,1 C 20,5 C 22,3 C 25,5 C 53 % 67 % 77 % 82 % 70 % 1030,4 hPa 0,0 l/m 4,2 km/h (1 Bft) N-NO 22 13,3 C 19,6 C 7,2 km/h (2 Bft)
24.07.2019 03:26 25,1 C 19,6 C 16,1 C 20,5 C 22,3 C 25,5 C 53 % 66 % 77 % 82 % 70 % 1030,4 hPa 0,0 l/m 4,2 km/h (1 Bft) N-NO 22 13,1 C 19,6 C 5,6 km/h (1 Bft)
24.07.2019 03:24 25,1 C 19,7 C 16,2 C 20,5 C 22,3 C 25,5 C 53 % 66 % 77 % 82 % 70 % 1030,4 hPa 0,0 l/m 4,2 km/h (1 Bft) N-NO 22 13,2 C 19,7 C 7,0 km/h (2 Bft)
24.07.2019 03:22 25,1 C 19,8 C 16,2 C 20,5 C 22,3 C 25,5 C 53 % 66 % 77 % 82 % 71 % 1030,4 hPa 0,0 l/m 4,2 km/h (1 Bft) N-NW 337 13,3 C 19,8 C 8,4 km/h (2 Bft)
24.07.2019 03:20 25,1 C 19,8 C 16,2 C 20,5 C 22,3 C 25,5 C 53 % 66 % 77 % 82 % 71 % 1030,7 hPa 0,0 l/m 4,0 km/h (1 Bft) N-NO 22 13,3 C 19,8 C 7,7 km/h (2 Bft)
24.07.2019 03:18 25,2 C 19,9 C 16,2 C 20,5 C 22,3 C 25,5 C 53 % 66 % 77 % 82 % 70 % 1030,7 hPa 0,0 l/m 4,2 km/h (1 Bft) N-NO 22 13,4 C 19,9 C 6,5 km/h (2 Bft)
24.07.2019 03:16 25,2 C 19,9 C 16,3 C 20,5 C 22,3 C 25,5 C 53 % 66 % 77 % 82 % 70 % 1030,7 hPa 0,0 l/m 3,9 km/h (1 Bft) N-NO 22 13,4 C 19,9 C 7,2 km/h (2 Bft)
24.07.2019 03:14 25,2 C 20,0 C 16,3 C 20,5 C 22,3 C 25,5 C 53 % 65 % 77 % 82 % 70 % 1030,7 hPa 0,0 l/m 3,7 km/h (1 Bft) N-NO 22 13,2 C 20,0 C 6,0 km/h (2 Bft)
24.07.2019 03:12 25,2 C 20,2 C 16,5 C 20,5 C 22,3 C 25,5 C 53 % 65 % 78 % 82 % 70 % 1030,7 hPa 0,0 l/m 3,9 km/h (1 Bft) N 360 13,4 C 20,2 C 6,5 km/h (2 Bft)
24.07.2019 03:10 25,2 C 20,2 C 16,5 C 20,5 C 22,3 C 25,5 C 53 % 65 % 78 % 82 % 70 % 1030,7 hPa 0,0 l/m 3,9 km/h (1 Bft) N 360 13,4 C 20,2 C 6,5 km/h (2 Bft)
24.07.2019 03:08 25,2 C 20,2 C 16,5 C 20,5 C 22,3 C 25,5 C 53 % 65 % 78 % 82 % 70 % 1030,7 hPa 0,0 l/m 3,9 km/h (1 Bft) N 360 13,4 C 20,2 C 6,5 km/h (2 Bft)
24.07.2019 03:06 25,2 C 20,2 C 16,5 C 20,5 C 22,3 C 25,5 C 53 % 65 % 78 % 82 % 70 % 1030,7 hPa 0,0 l/m 3,9 km/h (1 Bft) N 360 13,4 C 20,2 C 6,5 km/h (2 Bft)
24.07.2019 03:04 25,2 C 20,2 C 16,5 C 20,5 C 22,3 C 25,5 C 53 % 65 % 78 % 82 % 70 % 1030,7 hPa 0,0 l/m 3,9 km/h (1 Bft) N 360 13,4 C 20,2 C 6,5 km/h (2 Bft)
24.07.2019 03:02 25,2 C 20,2 C 16,5 C 20,5 C 22,3 C 25,6 C 53 % 65 % 78 % 82 % 70 % 1030,7 hPa 0,0 l/m 4,0 km/h (1 Bft) N-NO 22 13,4 C 20,2 C 8,7 km/h (2 Bft)
24.07.2019 03:00 25,3 C 20,2 C 16,6 C 20,5 C 22,3 C 25,5 C 53 % 65 % 78 % 82 % 70 % 1030,9 hPa 0,0 l/m 3,7 km/h (1 Bft) N-NO 22 13,4 C 20,2 C 9,9 km/h (2 Bft)
24.07.2019 02:58 25,2 C 20,3 C 16,4 C 20,5 C 22,3 C 25,6 C 53 % 65 % 78 % 82 % 70 % 1030,9 hPa 0,0 l/m 3,7 km/h (1 Bft) O-NO 67 13,5 C 20,3 C 7,7 km/h (2 Bft)
24.07.2019 02:56 25,2 C 20,4 C 16,5 C 20,5 C 22,3 C 25,6 C 53 % 65 % 78 % 82 % 70 % 1030,9 hPa 0,0 l/m 3,5 km/h (1 Bft) O-NO 67 13,6 C 20,4 C 3,9 km/h (1 Bft)
24.07.2019 02:54 25,4 C 20,5 C 16,6 C 20,5 C 22,3 C 25,6 C 53 % 65 % 78 % 82 % 70 % 1030,9 hPa 0,0 l/m 3,7 km/h (1 Bft) N-NO 22 13,7 C 20,5 C 6,0 km/h (2 Bft)
24.07.2019 02:52 25,4 C 20,6 C 16,8 C 20,5 C 22,3 C 25,6 C 53 % 64 % 78 % 82 % 70 % 1030,9 hPa 0,0 l/m 3,7 km/h (1 Bft) N-NO 22 13,5 C 20,6 C 8,7 km/h (2 Bft)
24.07.2019 02:50 25,4 C 20,7 C 16,8 C 20,5 C 22,3 C 25,6 C 53 % 64 % 78 % 82 % 70 % 1030,9 hPa 0,0 l/m 3,4 km/h (1 Bft) N-NO 22 13,6 C 20,7 C 6,5 km/h (2 Bft)
24.07.2019 02:48 25,4 C 20,7 C 16,9 C 20,5 C 22,3 C 25,6 C 53 % 65 % 78 % 82 % 70 % 1030,9 hPa 0,0 l/m 3,7 km/h (1 Bft) N 360 13,9 C 20,7 C 7,5 km/h (2 Bft)
24.07.2019 02:46 25,4 C 20,8 C 17,2 C 20,5 C 22,3 C 25,6 C 53 % 65 % 78 % 82 % 70 % 1030,9 hPa 0,0 l/m 4,0 km/h (1 Bft) NW 315 14,0 C 20,8 C 6,0 km/h (2 Bft)
24.07.2019 02:44 25,4 C 20,7 C 17,4 C 20,5 C 22,3 C 25,6 C 53 % 65 % 78 % 82 % 70 % 1030,9 hPa 0,0 l/m 5,1 km/h (1 Bft) O-NO 67 13,9 C 20,7 C 4,1 km/h (1 Bft)
24.07.2019 02:42 25,4 C 20,6 C 17,7 C 20,5 C 22,3 C 25,6 C 53 % 66 % 78 % 82 % 70 % 1030,9 hPa 0,0 l/m 5,5 km/h (1 Bft) O 90 14,0 C 20,6 C 13,0 km/h (3 Bft)
24.07.2019 02:40 25,5 C 20,6 C 17,3 C 20,5 C 22,3 C 25,6 C 53 % 65 % 78 % 82 % 70 % 1031,1 hPa 0,0 l/m 5,3 km/h (1 Bft) O-NO 67 13,8 C 20,6 C 6,3 km/h (2 Bft)
24.07.2019 02:38 25,5 C 20,5 C 17,3 C 20,5 C 22,3 C 25,6 C 53 % 65 % 78 % 82 % 70 % 1031,1 hPa 0,0 l/m 5,0 km/h (1 Bft) NW 315 13,7 C 20,5 C 7,7 km/h (2 Bft)
24.07.2019 02:36 25,5 C 20,5 C 17,2 C 20,5 C 22,3 C 25,6 C 53 % 65 % 78 % 82 % 70 % 1031,1 hPa 0,0 l/m 4,8 km/h (1 Bft) N 360 13,7 C 20,5 C 10,6 km/h (2 Bft)
24.07.2019 02:34 25,5 C 20,4 C 17,0 C 20,5 C 22,3 C 25,6 C 53 % 65 % 78 % 82 % 70 % 1031,1 hPa 0,0 l/m 4,2 km/h (1 Bft) N-NO 22 13,6 C 20,4 C 12,8 km/h (3 Bft)
24.07.2019 02:32 25,5 C 20,4 C 16,6 C 20,5 C 22,3 C 25,6 C 53 % 65 % 78 % 82 % 70 % 1031,1 hPa 0,0 l/m 3,7 km/h (1 Bft) O-NO 67 13,6 C 20,4 C 5,6 km/h (1 Bft)
24.07.2019 02:30 25,6 C 20,4 C 16,5 C 20,5 C 22,3 C 25,6 C 52 % 64 % 78 % 82 % 70 % 1031,1 hPa 0,0 l/m 3,7 km/h (1 Bft) SW 225 13,4 C 20,4 C 4,1 km/h (1 Bft)
24.07.2019 02:28 25,6 C 20,4 C 16,7 C 20,5 C 22,3 C 25,6 C 52 % 64 % 78 % 82 % 70 % 1031,1 hPa 0,0 l/m 3,7 km/h (1 Bft) NO 45 13,4 C 20,4 C 3,9 km/h (1 Bft)
24.07.2019 02:26 25,6 C 20,5 C 16,8 C 20,5 C 22,3 C 25,6 C 52 % 64 % 78 % 82 % 70 % 1031,1 hPa 0,0 l/m 3,9 km/h (1 Bft) N-NW 337 13,5 C 20,5 C 7,5 km/h (2 Bft)
24.07.2019 02:24 25,6 C 20,5 C 16,8 C 20,5 C 22,3 C 25,7 C 52 % 64 % 78 % 82 % 70 % 1031,1 hPa 0,0 l/m 3,9 km/h (1 Bft) N 360 13,5 C 20,5 C 8,2 km/h (2 Bft)
24.07.2019 02:22 25,6 C 20,5 C 16,8 C 20,5 C 22,3 C 25,6 C 52 % 65 % 78 % 82 % 70 % 1031,1 hPa 0,0 l/m 3,7 km/h (1 Bft) O-NO 67 13,7 C 20,5 C 6,3 km/h (2 Bft)
24.07.2019 02:20 25,6 C 20,4 C 16,8 C 20,5 C 22,3 C 25,6 C 52 % 65 % 78 % 82 % 70 % 1031,3 hPa 0,0 l/m 3,7 km/h (1 Bft) N-NW 337 13,6 C 20,4 C 6,8 km/h (2 Bft)
24.07.2019 02:18 25,6 C 20,4 C 16,9 C 20,5 C 22,3 C 25,6 C 52 % 65 % 78 % 82 % 70 % 1031,3 hPa 0,0 l/m 3,9 km/h (1 Bft) N 360 13,6 C 20,4 C 6,5 km/h (2 Bft)
24.07.2019 02:16 25,7 C 20,4 C 16,9 C 20,5 C 22,3 C 25,7 C 52 % 65 % 78 % 82 % 70 % 1031,3 hPa 0,0 l/m 4,0 km/h (1 Bft) N 360 13,6 C 20,4 C 4,8 km/h (1 Bft)
24.07.2019 02:14 25,7 C 20,4 C 16,9 C 20,5 C 22,2 C 25,6 C 52 % 65 % 78 % 82 % 70 % 1031,3 hPa 0,0 l/m 4,2 km/h (1 Bft) NO 45 13,6 C 20,4 C 7,5 km/h (2 Bft)
24.07.2019 02:12 25,7 C 20,4 C 16,9 C 20,5 C 22,3 C 25,7 C 52 % 66 % 78 % 82 % 70 % 1031,3 hPa 0,0 l/m 4,2 km/h (1 Bft) O-NO 67 13,8 C 20,4 C 6,3 km/h (2 Bft)
24.07.2019 02:10 25,8 C 20,3 C 16,8 C 20,5 C 22,2 C 25,7 C 52 % 65 % 78 % 82 % 70 % 1031,3 hPa 0,0 l/m 4,3 km/h (1 Bft) O-NO 67 13,5 C 20,3 C 5,6 km/h (1 Bft)
24.07.2019 02:08 25,8 C 20,2 C 16,9 C 20,5 C 22,3 C 25,7 C 52 % 65 % 78 % 82 % 70 % 1031,3 hPa 0,0 l/m 4,7 km/h (1 Bft) N-NO 22 13,4 C 20,2 C 8,9 km/h (2 Bft)
24.07.2019 02:06 25,8 C 20,3 C 16,8 C 20,5 C 22,3 C 25,7 C 52 % 65 % 78 % 82 % 70 % 1031,3 hPa 0,0 l/m 4,5 km/h (1 Bft) N-NW 337 13,5 C 20,3 C 6,3 km/h (2 Bft)
24.07.2019 02:04 25,9 C 20,3 C 16,8 C 20,5 C 22,3 C 25,7 C 52 % 65 % 78 % 82 % 70 % 1031,3 hPa 0,0 l/m 4,7 km/h (1 Bft) N-NO 22 13,5 C 20,3 C 7,0 km/h (2 Bft)
24.07.2019 02:02 25,9 C 20,3 C 16,9 C 20,5 C 22,3 C 25,7 C 52 % 65 % 78 % 82 % 70 % 1031,3 hPa 0,0 l/m 4,7 km/h (1 Bft) NW 315 13,5 C 20,3 C 7,2 km/h (2 Bft)
24.07.2019 02:00 25,9 C 20,3 C 17,0 C 20,5 C 22,3 C 25,7 C 52 % 65 % 78 % 82 % 70 % 1031,4 hPa 0,0 l/m 4,7 km/h (1 Bft) N 360 13,5 C 20,3 C 9,7 km/h (2 Bft)
24.07.2019 01:58 25,9 C 20,4 C 16,9 C 20,5 C 22,3 C 25,7 C 52 % 65 % 78 % 82 % 70 % 1031,4 hPa 0,0 l/m 4,3 km/h (1 Bft) N-NO 22 13,6 C 20,4 C 10,1 km/h (2 Bft)
24.07.2019 01:56 25,9 C 20,4 C 16,9 C 20,5 C 22,2 C 25,6 C 52 % 64 % 78 % 82 % 70 % 1031,4 hPa 0,0 l/m 4,2 km/h (1 Bft) N-NW 337 13,4 C 20,4 C 8,9 km/h (2 Bft)
24.07.2019 01:54 25,9 C 20,5 C 17,0 C 20,5 C 22,3 C 25,6 C 52 % 64 % 78 % 82 % 70 % 1031,4 hPa 0,0 l/m 4,2 km/h (1 Bft) N-NW 337 13,5 C 20,5 C 6,8 km/h (2 Bft)
24.07.2019 01:52 25,9 C 20,5 C 17,0 C 20,5 C 22,3 C 25,6 C 52 % 64 % 78 % 82 % 70 % 1031,4 hPa 0,0 l/m 4,0 km/h (1 Bft) N-NO 22 13,5 C 20,5 C 7,7 km/h (2 Bft)
24.07.2019 01:50 26,0 C 20,6 C 16,9 C 20,5 C 22,3 C 25,7 C 52 % 63 % 78 % 82 % 70 % 1031,4 hPa 0,0 l/m 3,7 km/h (1 Bft) N-NW 337 13,3 C 20,6 C 6,8 km/h (2 Bft)
24.07.2019 01:48 26,0 C 20,7 C 16,9 C 20,5 C 22,2 C 25,6 C 52 % 63 % 78 % 82 % 70 % 1031,4 hPa 0,0 l/m 3,2 km/h (1 Bft) N-NW 337 13,4 C 20,7 C 5,3 km/h (1 Bft)
24.07.2019 01:46 26,0 C 20,7 C 17,0 C 20,5 C 22,2 C 25,6 C 52 % 63 % 78 % 82 % 70 % 1031,4 hPa 0,0 l/m 3,1 km/h (1 Bft) N-NW 337 13,4 C 20,7 C 6,3 km/h (2 Bft)
24.07.2019 01:44 26,0 C 20,8 C 16,9 C 20,5 C 22,2 C 25,6 C 52 % 62 % 78 % 82 % 70 % 1031,4 hPa 0,0 l/m 2,6 km/h (1 Bft) N-NW 337 13,2 C 20,8 C 8,0 km/h (2 Bft)
24.07.2019 01:42 26,0 C 21,0 C 16,9 C 20,5 C 22,2 C 25,6 C 52 % 61 % 78 % 82 % 70 % 1031,4 hPa 0,0 l/m 1,6 km/h (1 Bft) N 360 13,2 C 21,0 C 5,8 km/h (2 Bft)
24.07.2019 01:40 26,1 C 21,0 C 16,9 C 20,5 C 22,2 C 25,6 C 52 % 61 % 78 % 82 % 70 % 1031,6 hPa 0,0 l/m 1,3 km/h (1 Bft) N-NW 337 13,2 C 21,0 C 5,8 km/h (2 Bft)
24.07.2019 01:38 26,1 C 21,2 C 16,9 C 20,5 C 22,2 C 25,6 C 52 % 61 % 78 % 82 % 70 % 1031,6 hPa 0,0 l/m 0,6 km/h (0 Bft) W-NW 292 13,4 C 21,2 C 2,7 km/h (1 Bft)
24.07.2019 01:36 26,1 C 21,3 C 17,1 C 20,5 C 22,2 C 25,6 C 52 % 61 % 78 % 82 % 70 % 1031,6 hPa 0,0 l/m 0,5 km/h (0 Bft) W 270 13,5 C 21,3 C 4,1 km/h (1 Bft)
24.07.2019 01:34 26,1 C 21,5 C 17,2 C 20,5 C 22,2 C 25,6 C 52 % 61 % 78 % 82 % 70 % 1031,6 hPa 0,0 l/m 0,5 km/h (0 Bft) W 270 13,7 C 21,5 C 3,6 km/h (1 Bft)
24.07.2019 01:32 26,1 C 21,6 C 17,3 C 20,5 C 22,2 C 25,6 C 52 % 61 % 78 % 82 % 70 % 1031,6 hPa 0,0 l/m 1,0 km/h (0 Bft) NW 315 13,7 C 21,6 C 0,0 km/h (0 Bft)
24.07.2019 01:30 26,1 C 21,6 C 17,4 C 20,5 C 22,2 C 25,6 C 52 % 60 % 78 % 82 % 70 % 1031,6 hPa 0,0 l/m 1,6 km/h (1 Bft) W 270 13,5 C 21,6 C 0,0 km/h (0 Bft)
24.07.2019 01:28 26,1 C 21,6 C 17,5 C 20,5 C 22,2 C 25,6 C 51 % 60 % 78 % 82 % 70 % 1031,6 hPa 0,0 l/m 2,3 km/h (1 Bft) N-NW 337 13,5 C 21,6 C 0,0 km/h (0 Bft)
24.07.2019 01:26 26,2 C 21,6 C 17,6 C 20,5 C 22,2 C 25,6 C 51 % 60 % 78 % 82 % 70 % 1031,6 hPa 0,0 l/m 3,2 km/h (1 Bft) N 360 13,5 C 21,6 C 0,0 km/h (0 Bft)
24.07.2019 01:24 26,2 C 21,7 C 17,8 C 20,5 C 22,2 C 25,6 C 51 % 60 % 78 % 82 % 70 % 1031,6 hPa 0,0 l/m 4,0 km/h (1 Bft) N-NO 22 13,6 C 21,7 C 3,6 km/h (1 Bft)
24.07.2019 01:22 26,2 C 21,7 C 18,0 C 20,4 C 22,2 C 25,6 C 51 % 60 % 78 % 82 % 70 % 1031,6 hPa 0,0 l/m 4,5 km/h (1 Bft) N-NW 337 13,6 C 21,7 C 6,3 km/h (2 Bft)
24.07.2019 01:20 26,2 C 21,7 C 17,9 C 20,5 C 22,2 C 25,6 C 51 % 60 % 78 % 82 % 70 % 1031,6 hPa 0,0 l/m 4,8 km/h (1 Bft) N-NW 337 13,6 C 21,7 C 7,5 km/h (2 Bft)
24.07.2019 01:18 26,2 C 21,6 C 17,8 C 20,5 C 22,2 C 25,6 C 51 % 60 % 78 % 82 % 70 % 1031,6 hPa 0,0 l/m 4,8 km/h (1 Bft) N-NW 337 13,5 C 21,6 C 7,0 km/h (2 Bft)
24.07.2019 01:16 26,2 C 21,6 C 17,8 C 20,5 C 22,2 C 25,6 C 51 % 60 % 78 % 82 % 70 % 1031,6 hPa 0,0 l/m 4,8 km/h (1 Bft) N-NW 337 13,5 C 21,6 C 11,6 km/h (2 Bft)
24.07.2019 01:14 26,3 C 21,6 C 17,8 C 20,5 C 22,1 C 25,6 C 51 % 60 % 78 % 82 % 70 % 1031,6 hPa 0,0 l/m 4,5 km/h (1 Bft) N-NO 22 13,5 C 21,6 C 8,4 km/h (2 Bft)
24.07.2019 01:12 26,3 C 21,6 C 17,6 C 20,5 C 22,2 C 25,6 C 51 % 59 % 78 % 82 % 70 % 1031,6 hPa 0,0 l/m 4,5 km/h (1 Bft) NW 315 13,2 C 21,6 C 11,6 km/h (2 Bft)
24.07.2019 01:10 26,2 C 21,6 C 17,6 C 20,4 C 22,2 C 25,6 C 51 % 59 % 78 % 82 % 70 % 1031,6 hPa 0,0 l/m 4,2 km/h (1 Bft) N-NW 337 13,2 C 21,6 C 8,9 km/h (2 Bft)
24.07.2019 01:08 26,4 C 21,6 C 17,6 C 20,5 C 22,2 C 25,6 C 51 % 59 % 78 % 82 % 70 % 1031,6 hPa 0,0 l/m 4,0 km/h (1 Bft) N-NW 337 13,2 C 21,6 C 7,7 km/h (2 Bft)
24.07.2019 01:06 26,4 C 21,6 C 17,6 C 20,4 C 22,2 C 25,7 C 51 % 58 % 78 % 82 % 70 % 1031,6 hPa 0,0 l/m 4,0 km/h (1 Bft) N-NW 337 13,0 C 21,6 C 6,8 km/h (2 Bft)
24.07.2019 01:04 26,4 C 21,6 C 17,6 C 20,4 C 22,2 C 25,7 C 51 % 57 % 78 % 82 % 70 % 1031,6 hPa 0,0 l/m 4,0 km/h (1 Bft) NW 315 12,7 C 21,6 C 6,8 km/h (2 Bft)
24.07.2019 01:02 26,4 C 21,6 C 17,5 C 20,4 C 22,1 C 25,7 C 51 % 57 % 78 % 82 % 70 % 1031,6 hPa 0,0 l/m 4,0 km/h (1 Bft) N-NW 337 12,7 C 21,6 C 9,9 km/h (2 Bft)
24.07.2019 01:00 26,4 C 21,7 C 17,5 C 20,4 C 22,1 C 25,7 C 51 % 57 % 78 % 82 % 70 % 1031,6 hPa 0,0 l/m 4,0 km/h (1 Bft) N-NO 22 12,8 C 21,7 C 6,3 km/h (2 Bft)
24.07.2019 00:58 26,4 C 21,7 C 17,4 C 20,4 C 22,2 C 25,7 C 51 % 57 % 78 % 82 % 70 % 1031,6 hPa 0,0 l/m 4,0 km/h (1 Bft) N-NW 337 12,8 C 21,7 C 5,3 km/h (1 Bft)
24.07.2019 00:56 26,4 C 21,7 C 17,5 C 20,4 C 22,1 C 25,7 C 51 % 57 % 78 % 82 % 70 % 1031,6 hPa 0,0 l/m 4,0 km/h (1 Bft) W 270 12,8 C 21,7 C 7,5 km/h (2 Bft)
24.07.2019 00:54 26,5 C 21,7 C 17,5 C 20,4 C 22,1 C 25,7 C 51 % 57 % 78 % 82 % 70 % 1031,6 hPa 0,0 l/m 3,9 km/h (1 Bft) N-NW 337 12,8 C 21,7 C 5,6 km/h (1 Bft)
24.07.2019 00:52 26,4 C 21,8 C 17,5 C 20,4 C 22,1 C 25,7 C 51 % 56 % 78 % 82 % 70 % 1031,6 hPa 0,0 l/m 3,7 km/h (1 Bft) N-NW 337 12,6 C 21,8 C 8,9 km/h (2 Bft)
24.07.2019 00:50 26,5 C 21,8 C 17,5 C 20,4 C 22,1 C 25,7 C 50 % 56 % 78 % 82 % 70 % 1031,6 hPa 0,0 l/m 3,4 km/h (1 Bft) NW 315 12,6 C 21,8 C 6,3 km/h (2 Bft)
24.07.2019 00:48 26,5 C 21,9 C 17,4 C 20,4 C 22,1 C 25,7 C 50 % 56 % 78 % 82 % 70 % 1031,6 hPa 0,0 l/m 3,4 km/h (1 Bft) N-NW 337 12,7 C 21,9 C 7,7 km/h (2 Bft)
24.07.2019 00:46 26,5 C 22,0 C 17,4 C 20,4 C 22,1 C 25,7 C 50 % 56 % 78 % 82 % 70 % 1031,6 hPa 0,0 l/m 3,5 km/h (1 Bft) N-NW 337 12,8 C 22,0 C 4,6 km/h (1 Bft)
24.07.2019 00:44 26,5 C 22,0 C 17,5 C 20,4 C 22,1 C 25,7 C 50 % 55 % 78 % 82 % 70 % 1031,6 hPa 0,0 l/m 3,5 km/h (1 Bft) N-NW 337 12,5 C 22,0 C 4,3 km/h (1 Bft)
24.07.2019 00:42 26,6 C 22,0 C 17,6 C 20,4 C 22,1 C 25,7 C 50 % 55 % 78 % 82 % 70 % 1031,6 hPa 0,0 l/m 3,7 km/h (1 Bft) N-NW 337 12,5 C 22,0 C 4,8 km/h (1 Bft)
24.07.2019 00:40 26,6 C 22,1 C 17,6 C 20,4 C 22,1 C 25,7 C 50 % 55 % 78 % 82 % 70 % 1031,9 hPa 0,0 l/m 3,9 km/h (1 Bft) N-NW 337 12,6 C 22,1 C 5,8 km/h (2 Bft)
24.07.2019 00:38 26,6 C 22,1 C 17,6 C 20,4 C 22,1 C 25,7 C 50 % 55 % 78 % 82 % 70 % 1031,9 hPa 0,0 l/m 4,0 km/h (1 Bft) NW 315 12,6 C 22,1 C 6,5 km/h (2 Bft)
24.07.2019 00:36 26,6 C 22,2 C 17,6 C 20,4 C 22,1 C 25,7 C 50 % 54 % 78 % 82 % 70 % 1031,9 hPa 0,0 l/m 4,0 km/h (1 Bft) N-NW 337 12,4 C 22,2 C 7,0 km/h (2 Bft)
24.07.2019 00:34 26,6 C 22,2 C 17,6 C 20,4 C 22,1 C 25,7 C 50 % 54 % 78 % 82 % 70 % 1031,9 hPa 0,0 l/m 3,9 km/h (1 Bft) NW 315 12,4 C 22,2 C 6,3 km/h (2 Bft)
24.07.2019 00:32 26,6 C 22,2 C 17,6 C 20,4 C 22,1 C 25,7 C 50 % 54 % 78 % 82 % 70 % 1031,9 hPa 0,0 l/m 4,0 km/h (1 Bft) NW 315 12,4 C 22,2 C 7,2 km/h (2 Bft)
24.07.2019 00:30 26,7 C 22,3 C 17,6 C 20,4 C 22,1 C 25,7 C 50 % 54 % 78 % 82 % 70 % 1031,9 hPa 0,0 l/m 4,2 km/h (1 Bft) NW 315 12,5 C 22,3 C 6,3 km/h (2 Bft)
24.07.2019 00:28 26,7 C 22,3 C 17,7 C 20,4 C 22,1 C 25,7 C 50 % 53 % 78 % 82 % 70 % 1031,9 hPa 0,0 l/m 4,3 km/h (1 Bft) NW 315 12,2 C 22,3 C 6,3 km/h (2 Bft)
24.07.2019 00:26 26,7 C 22,3 C 17,6 C 20,4 C 22,1 C 25,7 C 50 % 53 % 78 % 82 % 70 % 1031,9 hPa 0,0 l/m 4,5 km/h (1 Bft) NW 315 12,2 C 22,3 C 5,8 km/h (2 Bft)
24.07.2019 00:24 26,7 C 22,3 C 17,5 C 20,4 C 22,1 C 25,7 C 50 % 53 % 78 % 82 % 70 % 1031,9 hPa 0,0 l/m 4,7 km/h (1 Bft) NW 315 12,2 C 22,3 C 6,8 km/h (2 Bft)
24.07.2019 00:22 26,8 C 22,2 C 17,5 C 20,4 C 22,1 C 25,7 C 50 % 53 % 78 % 82 % 70 % 1031,9 hPa 0,0 l/m 4,8 km/h (1 Bft) N-NW 337 12,2 C 22,2 C 8,4 km/h (2 Bft)
24.07.2019 00:20 26,8 C 22,2 C 17,5 C 20,4 C 22,1 C 25,7 C 50 % 52 % 78 % 82 % 70 % 1031,8 hPa 0,0 l/m 4,8 km/h (1 Bft) NW 315 11,9 C 22,2 C 8,4 km/h (2 Bft)
24.07.2019 00:18 26,8 C 22,3 C 17,5 C 20,4 C 22,1 C 25,7 C 50 % 52 % 78 % 82 % 70 % 1031,8 hPa 0,0 l/m 4,7 km/h (1 Bft) W-NW 292 12,0 C 22,3 C 8,2 km/h (2 Bft)
24.07.2019 00:16 26,8 C 22,4 C 17,4 C 20,4 C 22,1 C 25,8 C 50 % 51 % 78 % 82 % 70 % 1031,8 hPa 0,0 l/m 4,5 km/h (1 Bft) NW 315 11,8 C 22,4 C 7,7 km/h (2 Bft)
24.07.2019 00:14 26,8 C 22,5 C 17,5 C 20,4 C 22,1 C 25,7 C 50 % 51 % 78 % 82 % 70 % 1031,8 hPa 0,0 l/m 4,3 km/h (1 Bft) NW 315 11,8 C 22,5 C 8,0 km/h (2 Bft)
24.07.2019 00:12 26,9 C 23,2 C 17,7 C 20,4 C 22,1 C 25,8 C 50 % 47 % 78 % 82 % 70 % 1031,8 hPa 0,0 l/m 1,4 km/h (1 Bft) N-NO 22 11,3 C 23,2 C 6,0 km/h (2 Bft)
24.07.2019 00:10 26,9 C 23,2 C 17,7 C 20,4 C 22,1 C 25,8 C 50 % 47 % 78 % 82 % 70 % 1031,8 hPa 0,0 l/m 1,4 km/h (1 Bft) N-NO 22 11,3 C 23,2 C 6,0 km/h (2 Bft)
24.07.2019 00:08 26,9 C 23,2 C 17,7 C 20,4 C 22,1 C 25,8 C 50 % 47 % 78 % 82 % 70 % 1031,8 hPa 0,0 l/m 1,4 km/h (1 Bft) N-NO 22 11,3 C 23,2 C 6,0 km/h (2 Bft)
24.07.2019 00:06 26,9 C 23,2 C 17,7 C 20,4 C 22,1 C 25,8 C 50 % 47 % 78 % 82 % 70 % 1031,8 hPa 0,0 l/m 1,4 km/h (1 Bft) N-NO 22 11,3 C 23,2 C 6,0 km/h (2 Bft)
24.07.2019 00:04 26,9 C 23,2 C 17,7 C 20,4 C 22,1 C 25,8 C 50 % 47 % 78 % 82 % 70 % 1031,8 hPa 0,0 l/m 1,4 km/h (1 Bft) N-NO 22 11,3 C 23,2 C 6,0 km/h (2 Bft)
24.07.2019 00:02 27,0 C 23,2 C 17,7 C 20,4 C 22,1 C 25,7 C 50 % 47 % 78 % 82 % 70 % 1031,8 hPa 0,0 l/m 1,0 km/h (0 Bft) N-NO 22 11,3 C 23,2 C 4,8 km/h (1 Bft)
24.07.2019 00:00 27,0 C 23,3 C 17,8 C 20,4 C 22,1 C 25,7 C 50 % 46 % 78 % 82 % 70 % 1032,1 hPa 0,0 l/m 0,5 km/h (0 Bft) N-NO 22 11,0 C 23,3 C 5,1 km/h (1 Bft)
_ Min-Zeit 06:38 04:10 03:58 00:00 00:00 06:20 00:00 00:00 03:14 07:04 00:00 04:42 - 00:00 - - 00:00 04:10 01:26
Minimum _ 23,6 C 18,8 C 15,6 C 20,4 C 22,1 C 25,2 C 50 % 46 % 77 % 81 % 70 % 1029,4 hPa - 0,5 km/h (0 Bft) - - 11,0 C 18,8 C 0,0 km/h (0 Bft)
_ Max-Zeit 00:00 00:00 01:22 06:58 01:50 00:04 06:28 04:58 00:00 00:00 03:20 00:00 00:00 02:42 - - 02:42 00:00 02:42
Maximum _ 27,0 C 23,3 C 18,0 C 20,7 C 22,3 C 25,8 C 55 % 71 % 78 % 82 % 71 % 1032,1 hPa 0,0 l/m 5,5 km/h
O (1 Bft)
- - 14,0 C 23,3 C 13,0 km/h
O (3 Bft)
Durchschnitt _ 25,1 C 20,1 C 16,6 C 20,5 C 22,2 C 25,5 C 53 % 65 % 78 % 82 % 70 % 1030,5 hPa #0,0 l/m 3,8 km/h (1 Bft) N-NO - 13,2 C 20,1 C 6,7 km/h (2 Bft)